FW9117 Weather Reports


time (UTC)temp
C
wind
direction
speed
KPH
gust
KPH
rain 1hr
cm
rain 24hr
cm
rain mn
cm
humidity
%
barometer
mb
20260906201027 29 196 3.2 12.9 0.00 0.03 0.03 76 1013.9
20260906200022 30 176 4.8 16.1 0.00 0.03 0.03 75 1013.9
20260906195017 29 184 4.8 12.9 0.00 0.03 0.03 75 1014.0
20260906194051 29 180 3.2 6.4 0.00 0.03 0.03 76 1014.0
20260906193025 30 192 1.6 9.7 0.00 0.03 0.03 76 1013.9
20260906192019 29 205 1.6 4.8 0.00 0.08 0.03 77 1014.1
20260906191053 30 203 1.6 12.9 0.00 0.10 0.03 76 1014.4
20260906190028 29 210 1.6 4.8 0.00 0.10 0.03 77 1014.6
20260906185024 28 214 1.6 3.2 0.00 0.13 0.03 78 1014.6
20260906184039 28 191 1.6 6.4 0.00 0.13 0.03 79 1014.5
20260906183033 28 193 4.8 11.3 0.00 0.13 0.03 80 1014.7
20260906182027 28 190 3.2 9.7 0.00 0.13 0.03 80 1014.9
20260906181022 28 197 3.2 11.3 0.00 0.13 0.03 80 1015.1
20260906180016 27 195 1.6 4.8 0.00 0.13 0.03 81 1015.2
20260906175031 27 197 3.2 11.3 0.00 0.13 0.03 83 1015.3
20260906174027 27 193 3.2 12.9 0.00 0.13 0.03 82 1015.8
20260906173043 26 190 3.2 9.7 0.00 0.13 0.03 84 1015.7
20260906172018 27 227 0.0 3.2 0.00 0.13 0.03 82 1015.9
20260906171034 27 293 0.0 1.6 0.00 0.13 0.03 81 1016.0
20260906170028 27 177 0.0 1.6 0.00 0.13 0.03 81 1016.2
20260906165023 27 174 1.6 9.7 0.00 0.13 0.03 82 1016.4
20260906164017 27 221 0.0 3.2 0.00 0.13 0.03 83 1016.4
20260906163032 25 205 0.0 4.8 0.00 0.13 0.03 85 1016.6
20260906162027 25 192 1.6 6.4 0.00 0.13 0.03 87 1016.7
20260906161022 24 216 1.6 6.4 0.00 0.13 0.03 89 1016.7
20260906160017 23 227 0.0 1.6 0.00 0.13 0.03 90 1016.5
20260906155032 23 218 0.0 1.6 0.00 0.13 0.03 91 1016.6
20260906154027 23 201 3.2 11.3 0.00 0.13 0.03 91 1016.5
20260906153022 23 202 3.2 9.7 0.00 0.13 0.03 92 1016.6
20260906152017 22 194 3.2 9.7 0.00 0.13 0.03 92 1016.6
20260906151052 23 205 1.6 4.8 0.00 0.13 0.03 92 1016.6
20260906150027 22 195 3.2 6.4 0.00 0.13 0.03 92 1016.6
20260906145022 22 198 4.8 9.7 0.00 0.13 0.03 92 1016.5
20260906144038 23 207 1.6 6.4 0.00 0.13 0.03 92 1016.7
20260906143033 23 195 3.2 11.3 0.00 0.13 0.03 91 1016.6
20260906142027 22 197 1.6 4.8 0.00 0.13 0.03 95 1016.4
20260906141022 21 199 0.0 3.2 0.00 0.13 0.03 98 1016.5
20260906140017 21 0.0 0.0 0.00 0.13 0.03 99 1016.7
20260906135113 20 0.0 0.0 0.00 0.13 0.03 99 1016.9
20260906134028 20 209 1.6 6.4 0.00 0.13 0.03 99 1016.7
20260906133022 20 56 0.0 3.2 0.00 0.13 0.03 99 1016.7
20260906132017 20 202 1.6 6.4 0.00 0.13 0.03 99 1016.7
20260906131031 19 193 4.8 9.7 0.00 0.13 0.03 99 1016.7
20260906130025 19 206 3.2 6.4 0.00 0.13 0.03 99 1016.4
20260906125019 18 198 3.2 6.4 0.00 0.13 0.03 99 1016.6
20260906124034 18 189 3.2 6.4 0.00 0.13 0.03 99 1016.3
20260906123049 17 179 0.0 1.6 0.00 0.13 0.03 99 1016.3
20260906122022 17 0.0 0.0 0.00 0.13 0.03 99 1016.4
20260906121019 17 0.0 0.0 0.00 0.13 0.03 99 1016.3
20260906120034 17 0.0 0.0 0.00 0.13 0.03 99 1016.3
20260906115029 17 0.0 0.0 0.00 0.13 0.03 99 1016.2
20260906114024 17 0.0 0.0 0.00 0.13 0.03 99 1016.4
20260906113019 17 0.0 0.0 0.00 0.13 0.03 99 1016.4
20260906112034 17 0.0 0.0 0.00 0.13 0.03 99 1016.4
20260906111049 17 0.0 0.0 0.00 0.13 0.03 99 1016.3
20260906110024 17 0.0 0.0 0.00 0.13 0.03 99 1016.3
20260906105018 18 0.0 0.0 0.00 0.13 0.03 99 1016.2
20260906104053 18 0.0 0.0 0.00 0.13 0.03 99 1016.3
20260906103028 18 212 0.0 1.6 0.00 0.13 0.03 99 1016.2
20260906102122 18 0.0 0.0 0.00 0.13 0.03 99 1016.1
20260906101017 18 204 0.0 3.2 0.03 0.13 0.03 99 1016.1
20260906100033 18 209 0.0 3.2 0.03 0.13 0.03 99 1016.0
20260906095027 18 209 0.0 1.6 0.03 0.13 0.03 99 1015.7
20260906094023 18 206 0.0 1.6 0.03 0.13 0.03 99 1015.7
20260906093018 18 0.0 0.0 0.03 0.13 0.03 99 1015.8
20260906092033 18 232 0.0 1.6 0.03 0.13 0.03 99 1015.7
20260906091027 18 216 1.6 4.8 0.00 0.10 0.00 99 1015.4
20260906090021 18 193 0.0 4.8 0.00 0.10 0.00 99 1015.8
20260906085016 18 0.0 0.0 0.00 0.10 0.00 99 1015.6
20260906084030 18 0.0 0.0 0.00 0.10 0.00 99 1015.6
20260906083024 18 177 0.0 1.6 0.00 0.10 0.00 99 1015.7
20260906082039 18 303 0.0 3.2 0.00 0.10 0.00 99 1015.8
20260906081033 18 274 3.2 11.3 0.00 0.10 0.00 99 1016.0
20260906080027 18 178 0.0 6.4 0.00 0.10 0.00 99 1014.8
20260906075022 18 197 1.6 11.3 0.00 0.10 0.00 99 1015.0
20260906074037 18 179 3.2 9.7 0.00 0.10 0.00 99 1015.5
20260906073034 17 201 1.6 3.2 0.00 0.10 0.00 99 1016.2
20260906072027 17 196 1.6 3.2 0.00 0.10 0.00 99 1016.0
20260906071022 17 0.0 0.0 0.00 0.10 0.00 99 1016.3
20260906070016 17 0.0 0.0 0.00 0.10 0.00 99 1016.1
20260906065030 17 0.0 0.0 0.00 0.10 0.00 99 1016.2
20260906064046 17 0.0 0.0 0.00 0.10 0.00 99 1016.2
20260906063020 17 216 0.0 1.6 0.00 0.10 0.00 99 1016.4
20260906062034 16 0.0 0.0 0.00 0.10 0.00 99 1016.6
20260906061031 17 0.0 0.0 0.00 0.10 0.00 99 1016.5
20260906060025 16 0.0 0.0 0.00 0.10 0.00 99 1016.5
20260906055020 17 0.0 0.0 0.00 0.10 0.00 99 1016.5
20260906054035 17 0.0 0.0 0.00 0.10 0.00 99 1016.7
20260906053029 17 0.0 0.0 0.00 0.10 0.00 99 1016.6
20260906052104 17 0.0 0.0 0.00 0.10 0.00 99 1016.4
20260906051018 17 0.0 0.0 0.00 0.10 0.00 99 1016.4
20260906050112 17 0.0 0.0 0.00 0.10 0.10 99 1016.6
20260906045027 17 286 0.0 1.6 0.00 0.10 0.10 99 1016.5
20260906044021 17 0.0 0.0 0.00 0.10 0.10 99 1016.3
20260906043017 17 0.0 0.0 0.00 0.10 0.10 99 1016.3
20260906042032 17 0.0 0.0 0.00 0.10 0.10 99 1016.4
20260906041027 17 0.0 0.0 0.00 0.10 0.10 99 1016.6
20260906040021 18 0.0 0.0 0.00 0.10 0.10 99 1016.8
20260906035015 18 0.0 0.0 0.00 0.10 0.10 99 1016.9
20260906034030 18 0.0 0.0 0.00 0.10 0.10 99 1016.8
20260906033024 18 0.0 0.0 0.00 0.10 0.10 99 1016.9
20260906032019 18 0.0 0.0 0.00 0.10 0.10 98 1016.7
20260906031033 18 220 0.0 3.2 0.00 0.10 0.10 98 1016.7
20260906030029 18 0.0 0.0 0.00 0.10 0.10 98 1016.5
20260906025023 18 226 0.0 1.6 0.00 0.10 0.10 98 1016.3
20260906024017 18 222 0.0 1.6 0.00 0.10 0.10 98 1016.3
20260906023032 19 263 0.0 1.6 0.00 0.10 0.10 98 1016.2
20260906022027 19 189 0.0 4.8 0.00 0.10 0.10 98 1016.1
20260906021041 18 245 0.0 1.6 0.00 0.10 0.10 98 1016.1
20260906020017 19 0.0 0.0 0.00 0.10 0.10 97 1016.1
20260906015031 19 0.0 0.0 0.00 0.10 0.10 96 1016.0
20260906014045 19 0.0 0.0 0.00 0.10 0.10 96 1015.6
20260906013021 19 252 0.0 1.6 0.00 0.10 0.10 95 1015.5
20260906012035 20 206 1.6 3.2 0.00 0.10 0.10 95 1015.6
20260906011029 20 199 1.6 3.2 0.00 0.10 0.10 95 1015.6
20260906010024 20 203 0.0 1.6 0.00 0.10 0.10 94 1015.1
20260906005018 20 215 0.0 1.6 0.00 0.10 0.10 94 1014.8
20260906004034 20 0.0 0.0 0.00 0.10 0.10 92 1014.7
20260906003029 21 0.0 0.0 0.00 0.10 0.10 90 1014.4
20260906002023 22 212 0.0 1.6 0.00 0.10 0.10 88 1014.3
20260906001018 23 239 0.0 3.2 0.00 0.10 0.10 84 1014.2
20260906000032 25 278 0.0 1.6 0.00 0.10 0.10 79 1014.1
20260905235027 25 0.0 0.0 0.00 0.10 0.10 77 1014.1
20260905234021 25 231 0.0 4.8 0.00 0.10 0.10 79 1014.0
20260905233017 25 235 0.0 3.2 0.00 0.10 0.10 77 1014.0
20260905232031 26 236 0.0 1.6 0.00 0.10 0.10 77 1014.1
20260905231025 26 262 0.0 1.6 0.00 0.10 0.10 77 1013.9
20260905230039 26 218 1.6 6.4 0.00 0.10 0.10 77 1013.9
20260905225034 27 237 0.0 1.6 0.00 0.10 0.10 74 1013.8
20260905224029 27 229 0.0 3.2 0.00 0.10 0.10 75 1014.0
20260905223023 27 233 0.0 3.2 0.00 0.10 0.10 73 1013.7
20260905222039 27 226 0.0 1.6 0.00 0.10 0.10 73 1013.7
20260905221054 27 233 0.0 3.2 0.00 0.10 0.10 74 1013.8
20260905220028 26 220 0.0 1.6 0.00 0.10 0.10 77 1013.4
20260905215023 25 180 6.4 12.9 0.00 0.10 0.10 77 1013.0
20260905214018 25 183 8.0 12.9 0.00 0.10 0.10 75 1013.1
20260905213032 25 182 8.0 14.5 0.00 0.10 0.10 74 1013.3
20260905212026 26 184 6.4 12.9 0.00 0.10 0.10 73 1013.4
20260905211021 25 193 6.4 12.9 0.00 0.10 0.10 78 1013.6
20260905210015 25 193 6.4 14.5 0.00 0.10 0.10 80 1013.7
20260905205030 24 190 6.4 16.1 0.00 0.10 0.10 83 1013.6
20260905204025 24 189 6.4 16.1 0.00 0.10 0.10 82 1014.0
20260905203019 23 186 3.2 9.7 0.00 0.10 0.10 85 1014.0
20260905202015 23 194 6.4 16.1 0.05 0.10 0.10 88 1014.3